| time (UTC) | temp F | wind direction | speed knots | gust knots | rain 1hr in | rain 24hr in | rain mn in | humidity % | barometer mb |
| 20260505041521 | 61 | 219 | 0.9 | 2.6 | 0.00 | 0.00 | 0.00 | 50 | 1003.5 |
| 20260505041004 | 61 | 219 | 0.0 | 2.6 | 0.00 | 0.00 | 0.00 | 50 | 1003.5 |
| 20260505040506 | 61 | 271 | 0.9 | 4.3 | 0.00 | 0.00 | 0.00 | 50 | 1003.4 |
| 20260505040013 | 61 | 190 | 0.9 | 4.3 | 0.00 | 0.00 | 0.00 | 51 | 1003.4 |
| 20260505035508 | 61 | 242 | 0.9 | 2.6 | 0.00 | 0.00 | 0.00 | 51 | 1003.4 |
| 20260505035007 | 60 | 248 | 0.9 | 3.5 | 0.00 | 0.00 | 0.00 | 52 | 1003.4 |
| 20260505034515 | 60 | 255 | 0.9 | 3.5 | 0.00 | 0.00 | 0.00 | 51 | 1003.3 |
| 20260505034010 | 60 | 248 | 0.0 | 1.7 | 0.00 | 0.00 | 0.00 | 52 | 1003.2 |
| 20260505033503 | 61 | 248 | 0.0 | 1.7 | 0.00 | 0.00 | 0.00 | 50 | 1003.3 |
| 20260505033016 | 61 | 225 | 0.9 | 1.7 | 0.00 | 0.00 | 0.00 | 50 | 1003.3 |
| 20260505032505 | 61 | 230 | 0.9 | 2.6 | 0.00 | 0.00 | 0.00 | 50 | 1003.3 |
| 20260505032004 | 61 | 241 | 0.9 | 3.5 | 0.00 | 0.00 | 0.00 | 50 | 1003.4 |
| 20260505031516 | 61 | 241 | 0.9 | 3.5 | 0.00 | 0.00 | 0.00 | 51 | 1003.3 |
| 20260505031006 | 60 | 244 | 0.9 | 1.7 | 0.00 | 0.00 | 0.00 | 52 | 1003.3 |
| 20260505030510 | 60 | 232 | 0.9 | 1.7 | 0.00 | 0.00 | 0.00 | 52 | 1003.3 |
| 20260505030019 | 60 | 244 | 0.0 | 1.7 | 0.00 | 0.00 | 0.00 | 54 | 1003.2 |
| 20260505025507 | 59 | 244 | 0.9 | 1.7 | 0.00 | 0.00 | 0.00 | 54 | 1003.3 |
| 20260505025004 | 58 | 241 | 0.9 | 1.7 | 0.00 | 0.00 | 0.00 | 57 | 1003.3 |
| 20260505024517 | 57 | 230 | 0.9 | 1.7 | 0.00 | 0.00 | 0.00 | 62 | 1003.3 |
| 20260505024003 | 56 | 227 | 0.0 | 1.7 | 0.00 | 0.00 | 0.00 | 64 | 1003.3 |
| 20260505023505 | 56 | 212 | 0.0 | 1.7 | 0.00 | 0.00 | 0.00 | 64 | 1003.3 |
| 20260505023022 | 56 | 212 | 0.0 | 1.7 | 0.00 | 0.00 | 0.00 | 66 | 1003.4 |
| 20260505022506 | 56 | 212 | 0.0 | 1.7 | 0.00 | 0.00 | 0.00 | 65 | 1003.4 |
| 20260505022007 | 56 | 213 | 0.0 | 1.7 | 0.00 | 0.00 | 0.00 | 67 | 1003.4 |
| 20260505021519 | 56 | 212 | 0.0 | 1.7 | 0.00 | 0.00 | 0.00 | 66 | 1003.5 |
| 20260505021003 | 57 | 212 | 0.0 | 1.7 | 0.00 | 0.00 | 0.00 | 66 | 1003.4 |
| 20260505020506 | 57 | 212 | 0.0 | 1.7 | 0.00 | 0.00 | 0.00 | 65 | 1003.4 |
| 20260505020017 | 57 | 212 | 0.0 | 1.7 | 0.00 | 0.00 | 0.00 | 64 | 1003.4 |
| 20260505015506 | 57 | 212 | 0.0 | 1.7 | 0.00 | 0.00 | 0.00 | 62 | 1003.4 |
| 20260505015006 | 58 | 212 | 0.0 | 1.7 | 0.00 | 0.00 | 0.00 | 62 | 1003.4 |
| 20260505014520 | 58 | 212 | 0.0 | 1.7 | 0.00 | 0.01 | 0.00 | 61 | 1003.4 |
| 20260505014005 | 58 | 213 | 0.0 | 0.0 | 0.00 | 0.01 | 0.00 | 61 | 1003.4 |
| 20260505013508 | 58 | 212 | 0.0 | 1.7 | 0.00 | 0.01 | 0.00 | 59 | 1003.4 |
| 20260505013027 | 59 | 213 | 0.0 | 1.7 | 0.00 | 0.01 | 0.00 | 58 | 1003.4 |
| 20260505012505 | 59 | 212 | 0.0 | 1.7 | 0.00 | 0.01 | 0.00 | 57 | 1003.5 |
| 20260505012004 | 59 | 212 | 0.0 | 0.9 | 0.00 | 0.02 | 0.00 | 57 | 1003.5 |
| 20260505011515 | 59 | 212 | 0.0 | 0.0 | 0.00 | 0.02 | 0.00 | 56 | 1003.5 |
| 20260505011003 | 60 | 212 | 0.0 | 0.0 | 0.00 | 0.02 | 0.00 | 54 | 1003.6 |
| 20260505010505 | 60 | 212 | 0.0 | 1.7 | 0.00 | 0.02 | 0.00 | 53 | 1003.5 |
| 20260505010029 | 60 | 212 | 0.0 | 1.7 | 0.00 | 0.02 | 0.00 | 52 | 1003.5 |
| 20260505005507 | 61 | 212 | 0.0 | 1.7 | 0.00 | 0.02 | 0.00 | 53 | 1003.5 |
| 20260505005007 | 62 | 212 | 0.0 | 1.7 | 0.00 | 0.02 | 0.00 | 52 | 1003.5 |
| 20260505004522 | 62 | 213 | 0.0 | 0.0 | 0.00 | 0.02 | 0.00 | 51 | 1003.5 |
| 20260505004009 | 63 | 212 | 0.0 | 0.0 | 0.00 | 0.02 | 0.00 | 49 | 1003.4 |
| 20260505003502 | 63 | 212 | 0.0 | 0.0 | 0.00 | 0.02 | 0.00 | 49 | 1003.5 |
| 20260505003010 | 64 | 212 | 0.0 | 0.0 | 0.00 | 0.02 | 0.00 | 46 | 1003.6 |
| 20260505002504 | 64 | 212 | 0.0 | 0.0 | 0.00 | 0.02 | 0.00 | 46 | 1003.6 |
| 20260505002008 | 65 | 212 | 0.0 | 0.0 | 0.00 | 0.02 | 0.00 | 47 | 1003.7 |
| 20260505001516 | 66 | 212 | 0.0 | 0.0 | 0.00 | 0.02 | 0.00 | 46 | 1003.6 |
| 20260505001006 | 66 | 212 | 0.0 | 0.0 | 0.00 | 0.02 | 0.00 | 46 | 1003.6 |
| 20260505000509 | 67 | 212 | 0.0 | 0.0 | 0.00 | 0.02 | 0.00 | 44 | 1003.6 |
| 20260505000032 | 68 | 212 | 0.0 | 0.0 | 0.00 | 0.02 | 0.00 | 43 | 1003.6 |
| 20260504235507 | 69 | 212 | 0.0 | 0.0 | 0.00 | 0.02 | 0.00 | 41 | 1003.5 |
| 20260504235006 | 69 | 213 | 0.0 | 1.7 | 0.00 | 0.02 | 0.00 | 40 | 1003.5 |
| 20260504234521 | 70 | 213 | 0.0 | 1.7 | 0.00 | 0.02 | 0.00 | 39 | 1003.4 |
| 20260504234004 | 70 | 212 | 0.0 | 0.9 | 0.00 | 0.02 | 0.00 | 37 | 1003.3 |
| 20260504233506 | 71 | 212 | 0.0 | 1.7 | 0.00 | 0.02 | 0.00 | 37 | 1003.3 |
| 20260504233008 | 71 | 212 | 0.0 | 1.7 | 0.00 | 0.02 | 0.00 | 35 | 1003.3 |
| 20260504232505 | 72 | 212 | 0.0 | 1.7 | 0.00 | 0.02 | 0.00 | 34 | 1003.3 |
| 20260504232008 | 72 | 232 | 0.0 | 1.7 | 0.00 | 0.02 | 0.00 | 33 | 1003.3 |
| 20260504231516 | 72 | 232 | 0.9 | 3.5 | 0.00 | 0.02 | 0.00 | 33 | 1003.3 |
| 20260504231009 | 72 | 218 | 1.7 | 3.5 | 0.00 | 0.02 | 0.00 | 32 | 1003.2 |
| 20260504230508 | 73 | 212 | 0.9 | 3.5 | 0.00 | 0.02 | 0.00 | 32 | 1003.3 |
| 20260504230035 | 73 | 243 | 0.9 | 4.3 | 0.00 | 0.02 | 0.00 | 32 | 1003.3 |
| 20260504225506 | 73 | 256 | 1.7 | 4.3 | 0.00 | 0.02 | 0.00 | 31 | 1003.4 |
| 20260504225007 | 74 | 191 | 0.0 | 6.1 | 0.00 | 0.02 | 0.00 | 31 | 1003.3 |
| 20260504224523 | 74 | 248 | 1.7 | 9.6 | 0.00 | 0.02 | 0.00 | 31 | 1003.3 |
| 20260504224004 | 74 | 216 | 1.7 | 9.6 | 0.00 | 0.02 | 0.00 | 31 | 1003.4 |
| 20260504223503 | 74 | 232 | 1.7 | 7.8 | 0.00 | 0.02 | 0.00 | 32 | 1003.5 |
| 20260504223021 | 74 | 192 | 3.5 | 7.8 | 0.00 | 0.02 | 0.00 | 31 | 1003.6 |
| 20260504222507 | 74 | 268 | 3.5 | 7.8 | 0.00 | 0.02 | 0.00 | 31 | 1003.5 |
| 20260504222006 | 74 | 186 | 3.5 | 6.1 | 0.00 | 0.02 | 0.00 | 31 | 1003.6 |
| 20260504221539 | 75 | 186 | 1.7 | 7.8 | 0.00 | 0.02 | 0.00 | 31 | 1003.6 |
| 20260504221007 | 74 | 257 | 2.6 | 7.8 | 0.00 | 0.02 | 0.00 | 32 | 1003.6 |
| 20260504220508 | 75 | 286 | 1.7 | 5.2 | 0.00 | 0.02 | 0.00 | 32 | 1003.6 |
| 20260504220023 | 74 | 5 | 1.7 | 7.8 | 0.00 | 0.02 | 0.00 | 32 | 1003.7 |
| 20260504215512 | 74 | 233 | 0.9 | 7.8 | 0.00 | 0.02 | 0.00 | 34 | 1003.8 |
| 20260504215013 | 74 | 204 | 0.9 | 7.0 | 0.00 | 0.02 | 0.00 | 35 | 1003.8 |
| 20260504214508 | 74 | 259 | 1.7 | 10.4 | 0.00 | 0.02 | 0.00 | 32 | 1003.7 |
| 20260504214007 | 75 | 205 | 4.3 | 10.4 | 0.00 | 0.02 | 0.00 | 33 | 1003.8 |
| 20260504213503 | 74 | 187 | 1.7 | 13.0 | 0.00 | 0.02 | 0.00 | 34 | 1003.8 |
| 20260504213016 | 74 | 251 | 6.1 | 13.0 | 0.00 | 0.02 | 0.00 | 32 | 1003.8 |
| 20260504212508 | 74 | 244 | 1.7 | 8.7 | 0.00 | 0.02 | 0.00 | 36 | 1003.8 |
| 20260504212009 | 74 | 254 | 2.6 | 7.8 | 0.00 | 0.02 | 0.00 | 34 | 1003.8 |
| 20260504211525 | 74 | 321 | 4.3 | 10.4 | 0.00 | 0.02 | 0.00 | 33 | 1003.9 |
| 20260504211007 | 74 | 245 | 0.9 | 10.4 | 0.00 | 0.02 | 0.00 | 34 | 1003.8 |
| 20260504210509 | 75 | 267 | 3.5 | 7.0 | 0.00 | 0.02 | 0.00 | 34 | 1003.9 |
| 20260504210024 | 74 | 217 | 3.5 | 6.1 | 0.00 | 0.02 | 0.00 | 35 | 1003.8 |
| 20260504205511 | 74 | 215 | 2.6 | 6.1 | 0.00 | 0.02 | 0.00 | 37 | 1003.8 |
| 20260504205008 | 73 | 195 | 3.5 | 7.8 | 0.00 | 0.02 | 0.00 | 36 | 1003.9 |
| 20260504204527 | 72 | 204 | 4.3 | 12.2 | 0.00 | 0.02 | 0.00 | 38 | 1003.9 |
| 20260504204003 | 73 | 249 | 2.6 | 12.2 | 0.00 | 0.02 | 0.00 | 36 | 1003.9 |
| 20260504203506 | 73 | 202 | 2.6 | 9.6 | 0.00 | 0.02 | 0.00 | 39 | 1004.1 |
| 20260504203018 | 73 | 296 | 1.7 | 9.6 | 0.00 | 0.02 | 0.00 | 38 | 1004.0 |
| 20260504202507 | 74 | 169 | 3.5 | 8.7 | 0.00 | 0.02 | 0.00 | 36 | 1004.1 |
| 20260504202008 | 73 | 196 | 4.3 | 10.4 | 0.00 | 0.02 | 0.00 | 35 | 1004.2 |
| 20260504201524 | 73 | 241 | 5.2 | 10.4 | 0.00 | 0.02 | 0.00 | 36 | 1004.2 |
| 20260504201011 | 73 | 194 | 3.5 | 9.6 | 0.00 | 0.02 | 0.00 | 37 | 1004.4 |
| 20260504200513 | 73 | 251 | 2.6 | 9.6 | 0.00 | 0.02 | 0.00 | 36 | 1004.3 |
| 20260504200023 | 72 | 229 | 1.7 | 10.4 | 0.00 | 0.02 | 0.00 | 37 | 1004.3 |
| 20260504195507 | 73 | 216 | 4.3 | 10.4 | 0.00 | 0.02 | 0.00 | 35 | 1004.5 |
| 20260504195003 | 74 | 223 | 4.3 | 10.4 | 0.00 | 0.02 | 0.00 | 37 | 1004.6 |
| 20260504194513 | 73 | 303 | 1.7 | 11.3 | 0.00 | 0.02 | 0.00 | 38 | 1004.5 |
| 20260504194008 | 72 | 262 | 3.5 | 11.3 | 0.00 | 0.02 | 0.00 | 37 | 1004.7 |
| 20260504193508 | 72 | 258 | 4.3 | 11.3 | 0.00 | 0.02 | 0.00 | 39 | 1004.5 |
| 20260504193026 | 72 | 284 | 3.5 | 13.0 | 0.00 | 0.02 | 0.00 | 39 | 1004.8 |
| 20260504192510 | 72 | 220 | 5.2 | 12.2 | 0.00 | 0.02 | 0.00 | 37 | 1004.8 |
| 20260504192012 | 71 | 247 | 3.5 | 14.8 | 0.00 | 0.02 | 0.00 | 39 | 1004.7 |
| 20260504191534 | 71 | 252 | 8.7 | 14.8 | 0.00 | 0.02 | 0.00 | 37 | 1004.8 |
| 20260504191008 | 72 | 244 | 2.6 | 9.6 | 0.00 | 0.02 | 0.00 | 39 | 1004.9 |
| 20260504190507 | 71 | 221 | 5.2 | 9.6 | 0.00 | 0.02 | 0.00 | 40 | 1005.0 |
| 20260504190025 | 70 | 276 | 1.7 | 10.4 | 0.00 | 0.02 | 0.00 | 42 | 1005.1 |
| 20260504185504 | 70 | 259 | 5.2 | 13.0 | 0.00 | 0.02 | 0.00 | 41 | 1005.1 |
| 20260504185007 | 71 | 221 | 5.2 | 13.0 | 0.00 | 0.02 | 0.00 | 40 | 1005.1 |
| 20260504184519 | 71 | 223 | 6.1 | 13.0 | 0.00 | 0.02 | 0.00 | 43 | 1005.1 |
| 20260504184002 | 71 | 263 | 4.3 | 10.4 | 0.00 | 0.02 | 0.00 | 42 | 1005.2 |
| 20260504183502 | 71 | 246 | 3.5 | 10.4 | 0.00 | 0.02 | 0.00 | 41 | 1005.2 |
| 20260504183004 | 71 | 209 | 2.6 | 10.4 | 0.00 | 0.02 | 0.00 | 41 | 1005.2 |
| 20260504182512 | 71 | 244 | 2.6 | 7.8 | 0.00 | 0.02 | 0.00 | 43 | 1005.2 |
| 20260504182003 | 71 | 203 | 2.6 | 10.4 | 0.00 | 0.02 | 0.00 | 40 | 1005.3 |
| 20260504181513 | 71 | 292 | 1.7 | 10.4 | 0.00 | 0.02 | 0.00 | 43 | 1005.4 |
| 20260504181003 | 70 | 300 | 6.1 | 10.4 | 0.00 | 0.02 | 0.00 | 40 | 1005.6 |
| 20260504180510 | 70 | 269 | 4.3 | 11.3 | 0.00 | 0.02 | 0.00 | 41 | 1005.6 |
| 20260504180016 | 69 | 235 | 4.3 | 13.9 | 0.00 | 0.02 | 0.00 | 42 | 1005.8 |
| 20260504175507 | 69 | 277 | 7.0 | 13.9 | 0.00 | 0.02 | 0.00 | 42 | 1005.9 |
| 20260504175010 | 69 | 260 | 4.3 | 13.0 | 0.00 | 0.02 | 0.00 | 44 | 1005.8 |
| 20260504174524 | 69 | 214 | 4.3 | 13.0 | 0.00 | 0.02 | 0.00 | 42 | 1005.8 |
| 20260504174003 | 69 | 316 | 5.2 | 13.0 | 0.00 | 0.02 | 0.00 | 41 | 1005.9 |
| 20260504173503 | 69 | 319 | 3.5 | 13.9 | 0.00 | 0.02 | 0.00 | 43 | 1005.8 |
| 20260504173004 | 69 | 218 | 7.0 | 13.9 | 0.00 | 0.02 | 0.00 | 42 | 1005.9 |
| 20260504172502 | 69 | 280 | 4.3 | 10.4 | 0.00 | 0.02 | 0.00 | 44 | 1005.9 |
| 20260504172010 | 68 | 191 | 3.5 | 13.0 | 0.00 | 0.02 | 0.00 | 47 | 1006.0 |
| 20260504171508 | 68 | 220 | 2.6 | 13.0 | 0.00 | 0.02 | 0.00 | 43 | 1006.0 |
| 20260504171006 | 67 | 244 | 4.3 | 14.8 | 0.00 | 0.02 | 0.00 | 46 | 1006.2 |
| 20260504170506 | 67 | 223 | 3.5 | 14.8 | 0.00 | 0.02 | 0.00 | 43 | 1006.2 |
| 20260504151009 | 63 | 244 | 7.0 | 12.2 | 0.00 | 0.02 | 0.00 | 46 | 1007.0 |
| 20260504150510 | 62 | 262 | 6.1 | 12.2 | 0.00 | 0.02 | 0.00 | 46 | 1007.2 |
| 20260504141009 | 59 | 219 | 4.3 | 13.0 | 0.00 | 0.02 | 0.00 | 49 | 1007.4 |
| 20260504140507 | 59 | 191 | 6.1 | 12.2 | 0.00 | 0.02 | 0.00 | 47 | 1007.4 |
| 20260504130511 | 55 | 238 | 3.5 | 8.7 | 0.00 | 0.02 | 0.00 | 52 | 1007.9 |
| 20260504110513 | 52 | 291 | 2.6 | 7.8 | 0.00 | 0.02 | 0.00 | 55 | 1007.7 |
| 20260504100509 | 51 | 198 | 1.7 | 6.1 | 0.00 | 0.02 | 0.00 | 59 | 1007.6 |
| 20260504081529 | 51 | 239 | 1.7 | 7.0 | 0.00 | 0.02 | 0.00 | 56 | 1008.0 |
| 20260504081018 | 51 | 249 | 1.7 | 6.1 | 0.00 | 0.02 | 0.00 | 56 | 1008.1 |
| 20260504080505 | 51 | 234 | 1.7 | 7.0 | 0.00 | 0.02 | 0.00 | 56 | 1008.1 |
| 20260504050513 | 46 | 144 | 0.0 | 0.0 | 0.00 | 0.02 | 0.00 | 90 | 1009.0 |
| 20260504045507 | 46 | 144 | 0.0 | 0.0 | 0.00 | 0.02 | 0.00 | 90 | 1009.1 |
| 20260504045004 | 46 | 144 | 0.0 | 0.0 | 0.00 | 0.02 | 0.00 | 90 | 1009.1 |
| 20260504044525 | 46 | 144 | 0.0 | 0.0 | 0.00 | 0.02 | 0.00 | 90 | 1009.1 |
| 20260504044007 | 46 | 144 | 0.0 | 0.0 | 0.00 | 0.02 | 0.00 | 90 | 1009.2 |
| 20260504043504 | 46 | 144 | 0.0 | 0.0 | 0.00 | 0.02 | 0.00 | 90 | 1009.2 |
| 20260504043013 | 46 | 144 | 0.0 | 0.0 | 0.00 | 0.02 | 0.00 | 90 | 1009.2 |
| 20260504042505 | 46 | 144 | 0.0 | 0.0 | 0.00 | 0.02 | 0.00 | 90 | 1009.3 |
| 20260504042006 | 46 | 144 | 0.0 | 0.0 | 0.00 | 0.02 | 0.00 | 90 | 1009.3 |